AXM6181 WBGR-WBGG

Flight info

Callsign AXM6181
Flight time 0h 47m
Altitude 34000
Route BIPAS1B BIPAS DCT SARVO G580 PILAX
Aircraft A20N/M-SDE2E3FGHIRWXY/LB1

Departure

Time 2026-05-04 05:39
Airport Miri Airport (WBGR)

Arrival

Time 2026-05-04 06:26
Airport Kuching International Airport (WBGG)
Time Latitude Longitude Altitude Speed Heading
2026-05-04 05:25 4.32478 113.98421 89 ft 0 kts 295°
2026-05-04 05:32 4.32478 113.98422 89 ft 1 kts 295°
2026-05-04 05:32 4.32475 113.98428 54 ft 1 kts 295°
2026-05-04 05:33 4.32469 113.98441 62 ft 1 kts 295°
2026-05-04 05:33 4.32466 113.98448 62 ft 1 kts 295°
2026-05-04 05:33 4.32463 113.98453 53 ft 1 kts 295°
2026-05-04 05:33 4.32459 113.98463 53 ft 1 kts 295°
2026-05-04 05:34 4.32457 113.98468 54 ft 1 kts 296°
2026-05-04 05:34 4.32454 113.98472 55 ft 1 kts 300°
2026-05-04 05:34 4.32450 113.98479 55 ft 1 kts 307°
2026-05-04 05:34 4.32446 113.98485 53 ft 1 kts 314°
2026-05-04 05:35 4.32436 113.98494 54 ft 2 kts 331°
2026-05-04 05:35 4.32422 113.98500 57 ft 2 kts 353°
2026-05-04 05:35 4.32414 113.98501 53 ft 0 kts
2026-05-04 05:37 4.32423 113.98504 56 ft 3 kts 19°
2026-05-04 05:37 4.32453 113.98517 62 ft 6 kts 29°
2026-05-04 05:38 4.32445 113.98607 61 ft 9 kts 114°
2026-05-04 05:38 4.32416 113.98671 60 ft 10 kts 117°
2026-05-04 05:38 4.32370 113.98733 60 ft 11 kts 126°
2026-05-04 05:38 4.32385 113.98771 61 ft 0 kts 28°
2026-05-04 05:39 4.33233 113.99165 62 ft 146 kts 23°
2026-05-04 05:39 4.34217 113.99613 678 ft 159 kts 23°
2026-05-04 05:40 4.36349 114.00078 2225 ft 164 kts 338°
2026-05-04 05:40 4.37242 113.99309 2719 ft 183 kts 297°
2026-05-04 05:40 4.37468 113.98063 3168 ft 204 kts 260°
2026-05-04 05:41 4.37067 113.96649 3779 ft 218 kts 252°
2026-05-04 05:41 4.36377 113.95268 4382 ft 236 kts 228°
2026-05-04 05:41 4.35070 113.94152 4877 ft 259 kts 219°
2026-05-04 05:41 4.33655 113.92927 5448 ft 276 kts 222°
2026-05-04 05:42 4.32223 113.91619 6311 ft 281 kts 222°
2026-05-04 05:42 4.30772 113.90285 7148 ft 285 kts 222°
2026-05-04 05:42 4.29295 113.88937 7982 ft 289 kts 221°
2026-05-04 05:42 4.27793 113.87577 8811 ft 293 kts 221°
2026-05-04 05:43 4.26267 113.86202 9666 ft 297 kts 221°
2026-05-04 05:43 4.24716 113.84807 10344 ft 305 kts 221°
2026-05-04 05:43 4.23074 113.83335 10608 ft 328 kts 221°
2026-05-04 05:45 4.11315 113.70350 14796 ft 377 kts 229°
2026-05-04 05:45 4.09639 113.68314 15390 ft 381 kts 229°
2026-05-04 05:47 3.97450 113.53513 19181 ft 405 kts 229°
2026-05-04 05:47 3.95650 113.51327 19666 ft 408 kts 229°
2026-05-04 05:47 3.93836 113.49126 20136 ft 411 kts 229°
2026-05-04 05:48 3.92012 113.46912 20606 ft 414 kts 229°
2026-05-04 05:48 3.90183 113.44671 21073 ft 417 kts 230°
2026-05-04 05:48 3.88416 113.42355 21528 ft 420 kts 232°
2026-05-04 05:48 3.86671 113.39999 21993 ft 423 kts 232°
2026-05-04 05:49 3.84914 113.37628 22432 ft 426 kts 232°
2026-05-04 05:49 3.83133 113.35240 22862 ft 429 kts 232°
2026-05-04 05:49 3.81338 113.32848 23305 ft 432 kts 232°
2026-05-04 05:49 3.79521 113.30435 23677 ft 435 kts 232°
2026-05-04 05:51 3.66511 113.13198 26096 ft 451 kts 232°
2026-05-04 05:51 3.64613 113.10684 26422 ft 454 kts 232°
2026-05-04 05:52 3.62705 113.08158 26746 ft 456 kts 232°
2026-05-04 05:52 3.60789 113.05620 27060 ft 458 kts 232°
2026-05-04 05:52 3.58863 113.03069 27373 ft 460 kts 232°
2026-05-04 05:52 3.56933 113.00514 27684 ft 462 kts 232°
2026-05-04 05:53 3.55014 112.97973 27980 ft 464 kts 232°
2026-05-04 05:54 3.41315 112.79615 29984 ft 476 kts 235°
2026-05-04 05:55 3.39463 112.76864 30222 ft 478 kts 236°
2026-05-04 05:55 3.37605 112.74098 30461 ft 479 kts 236°
2026-05-04 05:55 3.35732 112.71330 30708 ft 481 kts 235°
2026-05-04 05:55 3.33844 112.68558 30952 ft 483 kts 235°
2026-05-04 05:56 3.31947 112.65785 31254 ft 483 kts 235°
2026-05-04 05:56 3.30049 112.63016 31577 ft 482 kts 235°
2026-05-04 05:56 3.28153 112.60251 31899 ft 482 kts 235°
2026-05-04 05:56 3.26259 112.57490 32207 ft 481 kts 234°
2026-05-04 05:57 3.24365 112.54730 32505 ft 481 kts 234°
2026-05-04 05:57 3.22471 112.51968 32790 ft 481 kts 234°
2026-05-04 05:57 3.20579 112.49210 33090 ft 480 kts 234°
2026-05-04 05:57 3.18694 112.46461 33398 ft 479 kts 234°
2026-05-04 05:58 3.16807 112.43711 33688 ft 479 kts 234°
2026-05-04 05:58 3.14927 112.40971 33814 ft 477 kts 234°
2026-05-04 05:58 3.11178 112.35508 33874 ft 475 kts 234°
2026-05-04 05:59 3.07441 112.30062 33875 ft 474 kts 234°
2026-05-04 05:59 3.03713 112.24630 33874 ft 473 kts 234°
2026-05-04 06:00 2.99988 112.19204 33871 ft 473 kts 234°
2026-05-04 06:00 2.96267 112.13785 33872 ft 472 kts 234°
2026-05-04 06:01 2.92577 112.08410 33865 ft 471 kts 234°
2026-05-04 06:03 2.75726 111.88491 33861 ft 469 kts 227°
2026-05-04 06:05 2.60533 111.71550 30299 ft 471 kts 227°
2026-05-04 06:05 2.56174 111.66689 28945 ft 465 kts 227°
2026-05-04 06:05 2.54023 111.64291 28321 ft 461 kts 227°
2026-05-04 06:06 2.51891 111.61913 27665 ft 457 kts 227°
2026-05-04 06:06 2.49776 111.59555 27048 ft 454 kts 227°
2026-05-04 06:06 2.47676 111.57215 26438 ft 450 kts 227°
2026-05-04 06:06 2.45593 111.54893 25845 ft 447 kts 227°
2026-05-04 06:07 2.43523 111.52586 25269 ft 444 kts 227°
2026-05-04 06:07 2.41466 111.50294 24695 ft 441 kts 227°
2026-05-04 06:07 2.39427 111.48022 24132 ft 438 kts 227°
2026-05-04 06:07 2.37398 111.45760 23581 ft 435 kts 227°
2026-05-04 06:08 2.35382 111.43514 22978 ft 432 kts 226°
2026-05-04 06:08 2.33385 111.41289 22407 ft 428 kts 226°
2026-05-04 06:08 2.31410 111.39088 21841 ft 423 kts 226°
2026-05-04 06:08 2.29456 111.36907 21267 ft 420 kts 227°
2026-05-04 06:09 2.27521 111.34741 20716 ft 416 kts 227°
2026-05-04 06:09 2.25619 111.32609 20172 ft 412 kts 227°
2026-05-04 06:11 2.12645 111.18086 16450 ft 388 kts 227°
2026-05-04 06:11 2.10856 111.16084 15937 ft 384 kts 227°
2026-05-04 06:13 1.98775 111.02569 12430 ft 361 kts 227°
2026-05-04 06:14 1.89087 110.91728 10186 ft 321 kts 228°
2026-05-04 06:14 1.87628 110.90095 10076 ft 308 kts 228°
2026-05-04 06:15 1.86224 110.88525 9877 ft 299 kts 228°
2026-05-04 06:15 1.84846 110.86984 9512 ft 296 kts 229°
2026-05-04 06:15 1.83479 110.85456 9132 ft 294 kts 229°
2026-05-04 06:15 1.82122 110.83938 8753 ft 291 kts 229°
2026-05-04 06:16 1.80777 110.82434 8380 ft 289 kts 229°
2026-05-04 06:16 1.79442 110.80942 8015 ft 287 kts 229°
2026-05-04 06:16 1.78118 110.79462 7651 ft 285 kts 229°
2026-05-04 06:16 1.76803 110.77992 7297 ft 282 kts 229°
2026-05-04 06:17 1.75499 110.76534 6943 ft 280 kts 229°
2026-05-04 06:17 1.74206 110.75088 6589 ft 278 kts 229°
2026-05-04 06:17 1.72936 110.73669 6233 ft 277 kts 229°
2026-05-04 06:17 1.71657 110.72238 5861 ft 275 kts 229°
2026-05-04 06:18 1.70386 110.70818 5485 ft 273 kts 229°
2026-05-04 06:18 1.69122 110.69405 5136 ft 271 kts 229°
2026-05-04 06:18 1.67869 110.68004 4787 ft 270 kts 229°
2026-05-04 06:20 1.59464 110.58607 2996 ft 232 kts 229°
2026-05-04 06:20 1.58416 110.57439 2924 ft 219 kts 229°
2026-05-04 06:21 1.55824 110.53252 2900 ft 147 kts 249°
2026-05-04 06:21 1.55462 110.52332 2888 ft 137 kts 249°
2026-05-04 06:22 1.55109 110.51438 2894 ft 141 kts 249°
2026-05-04 06:22 1.54751 110.50531 2798 ft 140 kts 249°
2026-05-04 06:25 1.50166 110.38927 560 ft 139 kts 249°
2026-05-04 06:25 1.49807 110.38025 374 ft 142 kts 249°
2026-05-04 06:26 1.49461 110.37109 125 ft 137 kts 250°
2026-05-04 06:26 1.49159 110.36346 51 ft 121 kts 248°
2026-05-04 06:26 1.48917 110.35753 60 ft 64 kts 249°
2026-05-04 06:26 1.48829 110.35528 70 ft 6 kts 249°
2026-05-04 06:27 1.48877 110.35220 64 ft 8 kts 289°
2026-05-04 06:28 1.48852 110.35135 62 ft 18 kts 248°
2026-05-04 06:28 1.48799 110.35001 68 ft 23 kts 248°
2026-05-04 06:28 1.48742 110.34850 66 ft 24 kts 248°
2026-05-04 06:28 1.48682 110.34696 70 ft 24 kts 249°
2026-05-04 06:29 1.48620 110.34540 72 ft 23 kts 248°
2026-05-04 06:29 1.48565 110.34401 70 ft 13 kts 248°
2026-05-04 06:29 1.48533 110.34324 78 ft 11 kts 246°
2026-05-04 06:29 1.48521 110.34298 75 ft 2 kts 248°
2026-05-04 06:30 1.48532 110.34251 74 ft 11 kts 337°
2026-05-04 06:30 1.48597 110.34258 73 ft 12 kts
2026-05-04 06:30 1.48653 110.34239 72 ft 5 kts 340°
2026-05-04 06:30 1.48660 110.34236 74 ft 0 kts 339°